Location: Mentone
(34.5413°N, 85.5351°W)
Time: 20:45:21
(UTC-05:00)

Tiros 1 despin weight - All Passes

Search period start: 31 May 2016 00:00
Search period end: 10 June 2016 00:00
Orbit: 595 x 645 km, 48.2° (Epoch: 31 May)

Date Brightness Start Highest point End Pass type
(mag) Time Alt. Az. Time Alt. Az. Time Alt. Az.
31 May - 00:47:25 10° WNW 00:50:42 18° NNW 00:53:58 10° NNE visible
31 May - 02:30:57 10° NNW 02:33:45 16° N 02:36:32 10° NE visible
31 May - 04:12:18 10° NW 04:16:29 33° NNE 04:20:36 10° E visible
31 May - 05:53:48 10° WNW 05:58:13 48° SW 06:02:33 10° SSE daylight
31 May - 21:39:21 10° SW 21:43:57 56° SE 21:48:33 10° ENE visible
31 May - 23:21:35 10° W 23:25:46 31° NNW 23:29:58 10° NE visible
01 Jun - 01:05:46 10° NW 01:08:33 15° N 01:11:20 10° NNE visible
01 Jun - 02:48:17 10° NNW 02:51:35 19° NNE 02:54:53 10° ENE visible
01 Jun - 04:29:26 10° NW 04:33:59 57° NE 04:38:27 10° ESE visible
01 Jun - 06:11:43 10° W 06:15:18 23° SW 06:18:49 10° S daylight
01 Jun - 20:16:51 10° S 20:19:59 18° SE 20:23:09 10° E visible
01 Jun - 21:56:31 10° WSW 22:01:13 73° NW 22:05:55 10° NE visible
01 Jun - 23:39:50 10° WNW 23:43:27 21° NNW 23:47:03 10° NNE visible
02 Jun - 01:23:45 10° NNW 01:26:27 15° N 01:29:08 10° NE visible
02 Jun - 03:05:24 10° NW 03:09:20 26° NNE 03:13:12 10° E visible
02 Jun - 04:46:42 10° NW 04:51:18 73° SW 04:55:48 10° SE visible
02 Jun - 20:32:42 10° SSW 20:37:01 37° SE 20:41:23 10° ENE visible
02 Jun - 22:14:12 10° W 22:18:38 40° NNW 22:23:05 10° NE visible
02 Jun - 23:58:12 10° NW 00:01:15 17° N 00:04:17 10° NNE visible
03 Jun - 01:41:17 10° NNW 01:44:20 17° N 01:47:21 10° NE visible
03 Jun - 03:22:29 10° NW 03:26:54 42° NNE 03:31:15 10° ESE visible
03 Jun - 05:04:18 10° WNW 05:08:27 34° SW 05:12:32 10° SSE daylight
03 Jun - 19:11:40 10° SSE 19:13:11 11° SE 19:14:43 10° ESE daylight
03 Jun - 20:49:30 10° SW 20:54:12 79° SE 20:58:55 10° NE visible
03 Jun - 22:32:17 10° W 22:36:14 26° NNW 22:40:10 10° NE visible
04 Jun - 00:16:25 10° NW 00:19:08 15° N 00:21:50 10° NNE visible
04 Jun - 01:58:29 10° NNW 02:02:07 22° NNE 02:05:42 10° ENE visible
04 Jun - 03:39:40 10° NW 03:44:19 78° NE 03:48:53 10° ESE visible
04 Jun - 05:22:41 10° W 05:25:28 16° SW 05:28:12 10° SSW daylight
04 Jun - 19:26:19 10° S 19:30:09 25° SE 19:34:00 10° ENE daylight
04 Jun - 21:06:56 10° WSW 21:11:33 54° NNW 21:16:10 10° NE visible
04 Jun - 22:50:37 10° WNW 22:53:57 19° NNW 22:57:18 10° NNE visible
05 Jun - 00:34:11 10° NNW 00:37:02 16° N 00:39:50 10° NE visible
05 Jun - 02:15:35 10° NW 02:19:46 32° NNE 02:23:55 10° E visible
05 Jun - 03:57:03 10° WNW 04:01:34 51° SW 04:05:58 10° SSE visible
05 Jun - 19:42:41 10° SW 19:47:14 53° SE 19:51:50 10° ENE daylight
05 Jun - 21:24:49 10° W 21:29:02 32° NNW 21:33:17 10° NE visible
05 Jun - 23:08:57 10° NW 23:11:49 16° N 23:14:39 10° NNE visible
06 Jun - 00:51:32 10° NNW 00:54:52 19° NNE 00:58:10 10° ENE visible
06 Jun - 02:32:41 10° NW 02:37:17 55° NNE 02:41:48 10° ESE visible
06 Jun - 04:14:56 10° WNW 04:18:39 24° SW 04:22:19 10° S visible
06 Jun - 18:20:20 10° S 18:23:19 17° SE 18:26:18 10° E daylight
06 Jun - 19:59:48 10° WSW 20:04:29 77° NW 20:09:13 10° NE daylight
06 Jun - 21:43:02 10° WNW 21:46:42 22° NNW 21:50:23 10° NNE visible
06 Jun - 23:26:58 10° NW 23:29:42 15° N 23:32:25 10° NE visible
07 Jun - 01:08:41 10° NW 01:12:36 26° NNE 01:16:30 10° E visible
07 Jun - 02:49:57 10° NW 02:54:37 77° SW 02:59:12 10° SE visible
07 Jun - 04:34:32 10° WSW 04:35:35 11° SW 04:36:38 10° SW visible
07 Jun - 18:36:05 10° SSW 18:40:20 35° SE 18:44:37 10° ENE daylight
07 Jun - 20:17:27 10° W 20:21:54 42° NNW 20:26:23 10° NE visible
07 Jun - 22:01:24 10° NW 22:04:30 17° N 22:07:36 10° NNE visible
07 Jun - 23:44:31 10° NNW 23:47:35 17° N 23:50:37 10° NE visible
08 Jun - 01:25:46 10° NW 01:30:12 40° NNE 01:34:34 10° E visible
08 Jun - 03:07:31 10° WNW 03:11:47 36° SW 03:15:59 10° SSE visible
08 Jun - 17:15:31 10° SE 17:16:31 11° SE 17:17:30 10° ESE daylight
08 Jun - 18:52:50 10° SW 18:57:29 75° SE 19:02:11 10° NE daylight
08 Jun - 20:35:31 10° W 20:39:29 26° NNW 20:43:28 10° NE visible
08 Jun - 22:19:37 10° NW 22:22:22 15° N 22:25:08 10° NNE visible
09 Jun - 00:01:45 10° NNW 00:05:23 21° NNE 00:08:59 10° ENE visible
09 Jun - 01:42:55 10° NW 01:47:37 74° NE 01:52:14 10° ESE visible
09 Jun - 03:25:48 10° W 03:28:47 17° SW 03:31:45 10° S night (unlit)
09 Jun - 17:29:45 10° S 17:33:27 24° SE 17:37:12 10° ENE daylight
09 Jun - 19:10:13 10° WSW 19:14:48 57° NNW 19:19:27 10° NE daylight
09 Jun - 20:53:50 10° WNW 20:57:12 19° NNW 21:00:36 10° NNE visible
09 Jun - 22:37:25 10° NNW 22:40:16 16° N 22:43:07 10° NE visible
